Location: Newark
(34.1333°N, 7.9667°W)
Time: 12:54:14
(UTC+00:00)

deb S5M - Pass Details

Date: 23 October 2021
Orbit: 753 x 891 km, 82.3° (Epoch: 08 December)

Event Time Altitude Azimuth Distance (km) Brightness Sun altitude
Exits shadow 04:50:38 19° 198° (SSW) 1,983 ? -24.1°
Drops below altitude 10° 04:52:09 10° 193° (SSW) 2,529 ? -23.7°
Sets 04:54:41 0° 188° (S) 3,474 ? -23.2°
